| time (UTC) | temp C | wind direction | speed KPH | gust KPH | rain 1hr cm | rain 24hr cm | rain mn cm | humidity % | barometer mb |
| 20260905170141 | 28 | 195 | 1.6 | 8.0 | 0.00 | 0.00 | 0.00 | 42 | 1019.4 |
| 20260905164635 | 28 | 251 | 8.0 | 11.3 | 0.00 | 0.00 | 0.00 | 43 | 1019.5 |
| 20260905163127 | 27 | 120 | 6.4 | 11.3 | 0.00 | 0.00 | 0.00 | 46 | 1019.6 |
| 20260905161624 | 27 | 155 | 6.4 | 12.9 | 0.00 | 0.00 | 0.00 | 47 | 1019.6 |
| 20260905160136 | 26 | 197 | 6.4 | 12.9 | 0.00 | 0.00 | 0.00 | 48 | 1019.7 |
| 20260905154629 | 26 | 155 | 6.4 | 12.9 | 0.00 | 0.00 | 0.00 | 51 | 1019.9 |
| 20260905153126 | 26 | 132 | 8.0 | 12.9 | 0.00 | 0.00 | 0.00 | 51 | 1019.7 |
| 20260905151637 | 26 | 158 | 8.0 | 16.1 | 0.00 | 0.00 | 0.00 | 51 | 1019.8 |
| 20260905150134 | 26 | 157 | 9.7 | 17.7 | 0.00 | 0.00 | 0.00 | 52 | 1019.8 |
| 20260905144646 | 25 | 165 | 11.3 | 17.7 | 0.00 | 0.00 | 0.00 | 53 | 1019.8 |
| 20260905143121 | 25 | 146 | 12.9 | 19.3 | 0.00 | 0.00 | 0.00 | 54 | 1019.7 |
| 20260905141635 | 25 | 153 | 11.3 | 19.3 | 0.00 | 0.00 | 0.00 | 54 | 1019.6 |
| 20260905134622 | 23 | 157 | 8.0 | 17.7 | 0.00 | 0.00 | 0.00 | 56 | 1019.3 |
| 20260905133134 | 23 | 147 | 6.4 | 16.1 | 0.00 | 0.00 | 0.00 | 57 | 1019.2 |
| 20260905131650 | 22 | 137 | 6.4 | 14.5 | 0.00 | 0.00 | 0.00 | 58 | 1018.9 |
| 20260905130121 | 21 | 132 | 6.4 | 9.7 | 0.00 | 0.00 | 0.00 | 57 | 1018.7 |
| 20260905124654 | 21 | 151 | 4.8 | 9.7 | 0.00 | 0.00 | 0.00 | 57 | 1018.5 |
| 20260905123129 | 21 | 133 | 6.4 | 9.7 | 0.00 | 0.00 | 0.00 | 58 | 1018.2 |
| 20260905121641 | 21 | 146 | 4.8 | 11.3 | 0.00 | 0.00 | 0.00 | 58 | 1018.0 |
| 20260905120136 | 21 | 147 | 3.2 | 9.7 | 0.00 | 0.00 | 0.00 | 58 | 1017.7 |
| 20260905114628 | 21 | 156 | 4.8 | 11.3 | 0.00 | 0.00 | 0.00 | 59 | 1017.9 |
| 20260905113124 | 20 | 142 | 3.2 | 6.4 | 0.00 | 0.00 | 0.00 | 58 | 1017.7 |
| 20260905111656 | 19 | 135 | 1.6 | 3.2 | 0.00 | 0.00 | 0.00 | 60 | 1017.5 |
| 20260905110150 | 19 | 221 | 0.0 | 1.6 | 0.00 | 0.00 | 0.00 | 61 | 1017.4 |
| 20260905104645 | 19 | 56 | 0.0 | 0.0 | 0.00 | 0.00 | 0.00 | 61 | 1017.4 |
| 20260905103157 | 19 | 56 | 0.0 | 0.0 | 0.00 | 0.00 | 0.00 | 58 | 1017.1 |
| 20260905101628 | 20 | 58 | 0.0 | 1.6 | 0.00 | 0.00 | 0.00 | 56 | 1017.0 |
| 20260905100146 | 20 | 59 | 0.0 | 1.6 | 0.00 | 0.00 | 0.00 | 56 | 1016.9 |
| 20260905094637 | 21 | 282 | 0.0 | 0.0 | 0.00 | 0.00 | 0.00 | 54 | 1017.0 |
| 20260905093133 | 21 | 282 | 0.0 | 1.6 | 0.00 | 0.00 | 0.00 | 55 | 1017.0 |
| 20260905091645 | 21 | 151 | 0.0 | 0.0 | 0.00 | 0.00 | 0.00 | 54 | 1016.9 |
| 20260905090135 | 22 | 151 | 0.0 | 0.0 | 0.00 | 0.00 | 0.00 | 53 | 1016.9 |
| 20260905084652 | 22 | 151 | 0.0 | 1.6 | 0.00 | 0.00 | 0.00 | 52 | 1016.9 |
| 20260905083125 | 22 | 121 | 0.0 | 0.0 | 0.00 | 0.00 | 0.00 | 52 | 1016.9 |
| 20260905081621 | 22 | 121 | 0.0 | 0.0 | 0.00 | 0.00 | 0.00 | 52 | 1017.0 |
| 20260905080135 | 22 | 121 | 0.0 | 1.6 | 0.00 | 0.00 | 0.00 | 51 | 1017.1 |
| 20260905074624 | 22 | 103 | 1.6 | 3.2 | 0.00 | 0.00 | 0.00 | 52 | 1017.2 |
| 20260905073120 | 22 | 118 | 0.0 | 1.6 | 0.00 | 0.00 | 0.00 | 51 | 1017.1 |
| 20260905071631 | 23 | 150 | 0.0 | 1.6 | 0.00 | 0.00 | 0.00 | 49 | 1017.3 |
| 20260905070127 | 23 | 111 | 0.0 | 0.0 | 0.00 | 0.00 | 0.00 | 49 | 1017.3 |
| 20260905064620 | 23 | 111 | 0.0 | 0.0 | 0.00 | 0.00 | 0.00 | 49 | 1017.2 |
| 20260905063136 | 23 | 110 | 0.0 | 0.0 | 0.00 | 0.00 | 0.00 | 48 | 1017.2 |
| 20260905061652 | 23 | 110 | 0.0 | 0.0 | 0.00 | 0.00 | 0.00 | 48 | 1017.3 |
| 20260905060122 | 23 | 111 | 0.0 | 0.0 | 0.00 | 0.00 | 0.00 | 47 | 1017.3 |
| 20260905054635 | 23 | 110 | 0.0 | 0.0 | 0.00 | 0.00 | 0.00 | 47 | 1017.1 |
| 20260905053131 | 23 | 254 | 0.0 | 0.0 | 0.00 | 0.00 | 0.00 | 46 | 1017.1 |
| 20260905051643 | 24 | 151 | 0.0 | 0.0 | 0.00 | 0.00 | 0.00 | 46 | 1017.4 |
| 20260905050138 | 24 | 151 | 0.0 | 0.0 | 0.00 | 0.00 | 0.00 | 44 | 1017.5 |
| 20260905044629 | 24 | 222 | 0.0 | 1.6 | 0.00 | 0.00 | 0.00 | 43 | 1017.4 |
| 20260905043122 | 25 | 229 | 0.0 | 1.6 | 0.00 | 0.00 | 0.00 | 41 | 1017.4 |
| 20260905041639 | 27 | 101 | 0.0 | 1.6 | 0.00 | 0.00 | 0.00 | 39 | 1017.4 |
| 20260905040130 | 26 | 123 | 1.6 | 3.2 | 0.00 | 0.00 | 0.00 | 39 | 1017.4 |
| 20260905034624 | 26 | 40 | 0.0 | 0.0 | 0.00 | 0.00 | 0.00 | 38 | 1017.3 |
| 20260905033136 | 26 | 40 | 0.0 | 1.6 | 0.00 | 0.00 | 0.00 | 37 | 1017.2 |
| 20260905031628 | 27 | 75 | 0.0 | 3.2 | 0.00 | 0.00 | 0.00 | 36 | 1017.0 |
| 20260905030124 | 27 | 45 | 0.0 | 0.0 | 0.00 | 0.00 | 0.00 | 37 | 1016.8 |
| 20260905024634 | 26 | 305 | 0.0 | 3.2 | 0.00 | 0.00 | 0.00 | 38 | 1016.7 |
| 20260905023128 | 27 | 12 | 0.0 | 0.0 | 0.00 | 0.00 | 0.00 | 36 | 1016.7 |
| 20260905021639 | 27 | 12 | 0.0 | 0.0 | 0.00 | 0.00 | 0.00 | 35 | 1016.4 |
| 20260905020129 | 27 | 12 | 0.0 | 0.0 | 0.00 | 0.00 | 0.00 | 35 | 1016.2 |
| 20260905014644 | 28 | 12 | 0.0 | 0.0 | 0.00 | 0.00 | 0.00 | 33 | 1016.2 |
| 20260905013157 | 29 | 12 | 0.0 | 0.0 | 0.00 | 0.00 | 0.00 | 32 | 1016.2 |
| 20260905011630 | 30 | 12 | 0.0 | 0.0 | 0.00 | 0.00 | 0.00 | 31 | 1016.1 |
| 20260905010123 | 30 | 12 | 0.0 | 1.6 | 0.00 | 0.00 | 0.00 | 32 | 1016.1 |
| 20260905004635 | 31 | 319 | 0.0 | 4.8 | 0.00 | 0.00 | 0.00 | 30 | 1016.1 |
| 20260905003151 | 32 | 230 | 0.0 | 3.2 | 0.00 | 0.00 | 0.00 | 28 | 1015.9 |
| 20260905001622 | 32 | 222 | 1.6 | 6.4 | 0.00 | 0.00 | 0.00 | 28 | 1015.9 |
| 20260905000200 | 32 | 223 | 1.6 | 8.0 | 0.00 | 0.00 | 0.00 | 27 | 1015.8 |
| 20260904234631 | 32 | 125 | 0.0 | 9.7 | 0.00 | 0.00 | 0.00 | 27 | 1015.9 |
| 20260904233125 | 33 | 139 | 1.6 | 8.0 | 0.00 | 0.00 | 0.00 | 26 | 1015.9 |
| 20260904231658 | 32 | 172 | 3.2 | 9.7 | 0.00 | 0.00 | 0.00 | 27 | 1015.8 |
| 20260904230129 | 33 | 139 | 4.8 | 11.3 | 0.00 | 0.00 | 0.00 | 26 | 1015.8 |
| 20260904224645 | 33 | 262 | 1.6 | 12.9 | 0.00 | 0.00 | 0.00 | 27 | 1015.9 |
| 20260904223135 | 33 | 141 | 6.4 | 12.9 | 0.00 | 0.00 | 0.00 | 26 | 1016.1 |
| 20260904221626 | 33 | 182 | 6.4 | 11.3 | 0.00 | 0.00 | 0.00 | 26 | 1016.2 |
| 20260904220122 | 33 | 219 | 8.0 | 19.3 | 0.00 | 0.00 | 0.00 | 26 | 1016.3 |
| 20260904214633 | 32 | 40 | 1.6 | 9.7 | 0.00 | 0.00 | 0.00 | 27 | 1016.3 |
| 20260904213151 | 33 | 246 | 6.4 | 12.9 | 0.00 | 0.00 | 0.00 | 26 | 1016.5 |
| 20260904211642 | 33 | 127 | 8.0 | 12.9 | 0.00 | 0.00 | 0.00 | 28 | 1016.6 |
| 20260904210131 | 33 | 170 | 6.4 | 16.1 | 0.00 | 0.00 | 0.00 | 27 | 1016.7 |
| 20260904204626 | 32 | 204 | 8.0 | 16.1 | 0.00 | 0.00 | 0.00 | 29 | 1016.9 |
| 20260904203159 | 32 | 221 | 6.4 | 19.3 | 0.00 | 0.00 | 0.00 | 29 | 1017.1 |
| 20260904201633 | 32 | 131 | 4.8 | 9.7 | 0.00 | 0.00 | 0.00 | 29 | 1017.3 |
| 20260904200125 | 31 | 260 | 4.8 | 12.9 | 0.00 | 0.00 | 0.00 | 31 | 1017.8 |
| 20260904194640 | 31 | 266 | 4.8 | 14.5 | 0.00 | 0.00 | 0.00 | 32 | 1018.0 |
| 20260904193132 | 30 | 228 | 8.0 | 14.5 | 0.00 | 0.00 | 0.00 | 33 | 1018.2 |
| 20260904191623 | 30 | 233 | 3.2 | 12.9 | 0.00 | 0.00 | 0.00 | 33 | 1018.3 |
| 20260904190201 | 30 | 281 | 6.4 | 11.3 | 0.00 | 0.00 | 0.00 | 32 | 1018.6 |
| 20260904183128 | 30 | 265 | 1.6 | 11.3 | 0.00 | 0.00 | 0.00 | 32 | 1018.9 |
| 20260904181640 | 30 | 313 | 6.4 | 12.9 | 0.00 | 0.00 | 0.00 | 33 | 1019.1 |
| 20260904180136 | 30 | 329 | 3.2 | 12.9 | 0.00 | 0.00 | 0.00 | 34 | 1019.5 |
| 20260904174628 | 30 | 74 | 1.6 | 14.5 | 0.00 | 0.00 | 0.00 | 35 | 1019.9 |
| 20260904173140 | 30 | 311 | 1.6 | 11.3 | 0.00 | 0.00 | 0.00 | 36 | 1019.9 |
| 20260904171635 | 28 | 241 | 3.2 | 11.3 | 0.00 | 0.00 | 0.00 | 40 | 1020.2 |